Content
SEND FEEDBACK

Daily
Averages
Monthly
Summary
United States of America

SUMMERVILLE, SOUTH CAROLINA


Home > North America > United States > South Carolina
Elevation: 57 feet     Latitude: 32 59N     Longitude: 080 11W

WEATHER
 
SELECT A DAY
Number of Records: 114,247;   Date Range: 4/4/09 - 7/27/14
 
SHARE

PRINT THIS DATA

[ ← Previous Day ]
WEATHER ALMANAC - JANUARY 31, 2013
[ Next Day → ]
[ °C ]   °F
Weather ElementAverageHighLow
Temperature50.6 °F55.4 °F (1:55 pm)44.6 °F (6:15 am)
Dewpoint34 °F53.6 °F (12:35 am)23 °F (4:35 pm)
Humidity56.8 %100 % (12:35 am)29 % (4:35 pm)
Barometer29.95 in30.06 in (5:15 pm)29.74 in (12:55 am)
Wind Speed12.2 mph17.3 mph (1:55 pm)
Wind Gust26.5 mph (5:15 am)
Weather ElementAverage
Visibility9.8 mi
Wind DirectionWSW (257 °)

Weather ElementTotal
Precipitation---
Heating Degree Days15 (Base 65)
Averaged from 47 records on January 31, 2013
WEATHER CONDITIONS BREAKOUT
WIND DIRECTION BREAKOUT
WEATHER BY HOUR - JANUARY 31, 2013
[ °C ]   °F
Local TimeTemperatureDewpointHumidityBarometerVisibilityWind DirectionWind SpeedGust SpeedPrecipitationEventsConditions
12:35 AM53.6 °F53.6 °F100 %29.75 in5.0 miWest (270°)6.9 mphRainHeavy Rain
12:55 AM53.6 °F53.6 °F100 %29.74 in5.0 miWest (270°)6.9 mphRainRain
1:15 AM53.6 °F53.6 °F100 %29.75 in10.0 miWest (270°)6.9 mphRainLight Rain
1:35 AM53.6 °F51.8 °F94 %29.76 in10.0 miSSW (210°)4.6 mphOvercast
2:35 AM53.6 °F51.8 °F94 %29.78 in10.0 miSW (220°)6.9 mphOvercast
3:15 AM51.8 °F51.8 °F100 %29.78 in10.0 miSW (230°)6.9 mphOvercast
3:35 AM51.8 °F50.0 °F94 %29.80 in10.0 miWSW (240°)8.1 mph17.3 mphMostly Cloudy
3:55 AM51.8 °F46.4 °F82 %29.81 in10.0 miSW (230°)11.5 mph23.0 mphScattered Clouds
4:15 AM51.8 °F44.6 °F76 %29.82 in10.0 miSW (230°)8.1 mph18.4 mphMostly Cloudy
4:35 AM51.8 °F44.6 °F76 %29.83 in10.0 miWSW (240°)10.4 mph18.4 mphMostly Cloudy
4:55 AM51.8 °F42.8 °F71 %29.85 in10.0 miWest (270°)13.8 mph23.0 mphOvercast
5:15 AM50.0 °F37.4 °F62 %29.86 in10.0 miWest (270°)15.0 mph26.5 mphScattered Clouds
5:35 AM46.4 °F33.8 °F62 %29.88 in10.0 miWest (260°)13.8 mph26.5 mphClear
5:55 AM46.4 °F33.8 °F62 %29.88 in10.0 miWSW (250°)12.7 mph18.4 mphClear
6:15 AM44.6 °F33.8 °F66 %29.90 in10.0 miWSW (250°)12.7 mph17.3 mphClear
6:35 AM44.6 °F32.0 °F61 %29.92 in10.0 miWest (260°)12.7 mph21.9 mphClear
6:55 AM44.6 °F32.0 °F61 %29.93 in10.0 miWest (260°)11.5 mph21.9 mphClear
7:15 AM44.6 °F32.0 °F61 %29.95 in10.0 miWest (260°)15.0 mph26.5 mphClear
7:35 AM44.6 °F32.0 °F61 %29.95 in10.0 miWSW (250°)9.2 mph16.1 mphClear
7:55 AM44.6 °F33.8 °F66 %29.95 in10.0 miWest (270°)12.7 mphClear
8:15 AM44.6 °F33.8 °F66 %29.98 in10.0 miWSW (250°)15.0 mph20.7 mphClear
8:55 AM44.6 °F30.2 °F57 %30.02 in10.0 miWest (270°)16.1 mph26.5 mphClear
9:15 AM44.6 °F30.2 °F57 %30.02 in10.0 miWest (260°)12.7 mph26.5 mphClear
9:35 AM44.6 °F30.2 °F57 %30.02 in10.0 miWNW (290°)15.0 mph24.2 mphClear
9:55 AM46.4 °F28.4 °F50 %30.02 in10.0 miWest (270°)16.1 mph23.0 mphClear
10:15 AM46.4 °F30.2 °F53 %30.03 in10.0 miWest (270°)11.5 mph17.3 mphClear
10:35 AM46.4 °F28.4 °F50 %30.03 in10.0 miWest (270°)12.7 mph23.0 mphClear
10:55 AM48.2 °F28.4 °F46 %30.04 in10.0 miWest (280°)13.8 mph21.9 mphClear
11:15 AM50.0 °F28.4 °F43 %30.03 in10.0 miWest (260°)13.8 mph19.6 mphClear
11:35 AM50.0 °F28.4 °F43 %30.03 in10.0 miWest (280°)15.0 mph21.9 mphClear
11:55 AM51.8 °F28.4 °F41 %30.03 in10.0 miWest (270°)11.5 mph18.4 mphClear
12:15 PM51.8 °F30.2 °F44 %30.02 in10.0 miWSW (240°)16.1 mph20.7 mphClear
12:35 PM53.6 °F28.4 °F38 %30.02 in10.0 miWSW (250°)12.7 mph20.7 mphClear
12:55 PM53.6 °F28.4 °F38 %30.01 in10.0 miWest (270°)13.8 mph21.9 mphClear
1:15 PM53.6 °F28.4 °F38 %30.02 in10.0 miWest (260°)12.7 mph20.7 mphClear
1:35 PM53.6 °F28.4 °F38 %30.01 in10.0 miWest (260°)16.1 mph21.9 mphClear
1:55 PM55.4 °F26.6 °F33 %30.01 in10.0 miWSW (250°)17.3 mph26.5 mphClear
2:15 PM55.4 °F26.6 °F33 %30.01 in10.0 miWSW (250°)13.8 mph21.9 mphClear
2:35 PM55.4 °F26.6 °F33 %30.01 in10.0 miWest (260°)16.1 mph23.0 mphClear
3:15 PM55.4 °F24.8 °F31 %30.01 in10.0 miWest (260°)12.7 mph21.9 mphClear
3:35 PM55.4 °F26.6 °F33 %30.02 in10.0 miWest (260°)15.0 mph19.6 mphClear
3:55 PM55.4 °F26.6 °F33 %30.02 in10.0 miWSW (250°)11.5 mph21.9 mphClear
4:15 PM55.4 °F26.6 °F33 %30.04 in10.0 miWest (260°)12.7 mph20.7 mphClear
4:35 PM55.4 °F23.0 °F29 %30.04 in10.0 miWest (260°)15.0 mph23.0 mphClear
4:55 PM55.4 °F24.8 °F31 %30.05 in10.0 miWest (260°)10.4 mph19.6 mphClear
5:15 PM53.6 °F26.6 °F35 %30.06 in10.0 miWSW (250°)11.5 mph17.3 mphClear
5:35 PM51.8 °F26.6 °F38 %30.06 in10.0 miWest (260°)6.9 mphClear
Hourly data recorded from KDYB, located miles away from Summerville, South Carolina







STORIES FROM OUR PARTNERS